| time (UTC) | temp F | wind direction | speed MPH | gust MPH | rain 1hr in | rain 24hr in | rain mn in | humidity % | barometer mb |
| 20260505052316 | 58 | 338 | 1.0 | 6.0 | 0.00 | 0.00 | 0.00 | 78 | 1010.9 |
| 20260505051332 | 58 | 319 | 0.0 | 2.0 | 0.00 | 0.00 | 0.00 | 78 | 1010.9 |
| 20260505050327 | 58 | 24 | 0.0 | 3.0 | 0.00 | 0.00 | 0.00 | 78 | 1010.9 |
| 20260505041334 | 58 | 355 | 0.0 | 0.0 | 0.00 | 0.00 | 0.00 | 78 | 1010.4 |
| 20260505040326 | 58 | 319 | 0.0 | 4.0 | 0.00 | 0.00 | 0.00 | 78 | 1010.4 |
| 20260505035338 | 59 | 355 | 0.0 | 0.0 | 0.00 | 0.00 | 0.00 | 78 | 1010.1 |
| 20260505034330 | 59 | 22 | 0.0 | 4.0 | 0.00 | 0.00 | 0.00 | 78 | 1009.9 |
| 20260505033321 | 59 | 28 | 0.0 | 0.0 | 0.00 | 0.00 | 0.00 | 77 | 1009.9 |
| 20260505032331 | 59 | 33 | 0.0 | 2.0 | 0.00 | 0.00 | 0.00 | 78 | 1009.8 |
| 20260505031321 | 60 | 279 | 0.0 | 3.0 | 0.00 | 0.00 | 0.00 | 76 | 1009.4 |
| 20260505030315 | 60 | 302 | 2.0 | 7.0 | 0.00 | 0.00 | 0.00 | 75 | 1009.4 |
| 20260505025331 | 60 | 286 | 1.0 | 6.0 | 0.00 | 0.00 | 0.00 | 74 | 1009.3 |
| 20260505024321 | 61 | 11 | 1.0 | 7.0 | 0.00 | 0.00 | 0.00 | 74 | 1009.3 |
| 20260505023332 | 62 | 360 | 4.0 | 10.0 | 0.00 | 0.00 | 0.00 | 72 | 1009.3 |
| 20260505022322 | 62 | 28 | 1.0 | 10.0 | 0.00 | 0.00 | 0.00 | 71 | 1009.3 |
| 20260505021333 | 63 | 355 | 3.0 | 7.0 | 0.00 | 0.00 | 0.00 | 70 | 1009.2 |
| 20260505020326 | 63 | 297 | 2.0 | 12.0 | 0.00 | 0.00 | 0.00 | 68 | 1009.2 |
| 20260505015318 | 65 | 30 | 4.0 | 9.0 | 0.00 | 0.00 | 0.00 | 66 | 1008.9 |
| 20260505014332 | 66 | 296 | 2.0 | 10.0 | 0.00 | 0.00 | 0.00 | 64 | 1008.8 |
| 20260505013323 | 66 | 318 | 2.0 | 8.0 | 0.00 | 0.00 | 0.00 | 63 | 1008.8 |
| 20260505012340 | 67 | 335 | 5.0 | 11.0 | 0.00 | 0.00 | 0.00 | 62 | 1008.8 |
| 20260505011331 | 68 | 294 | 4.0 | 12.0 | 0.00 | 0.00 | 0.00 | 61 | 1008.8 |
| 20260505010328 | 68 | 289 | 2.0 | 9.0 | 0.00 | 0.00 | 0.00 | 60 | 1008.8 |
| 20260505005320 | 69 | 321 | 2.0 | 9.0 | 0.00 | 0.00 | 0.00 | 60 | 1008.8 |
| 20260505004336 | 69 | 300 | 1.0 | 9.0 | 0.00 | 0.00 | 0.00 | 61 | 1008.7 |
| 20260505003327 | 69 | 327 | 2.0 | 10.0 | 0.00 | 0.00 | 0.00 | 59 | 1008.7 |
| 20260505002322 | 70 | 15 | 3.0 | 11.0 | 0.00 | 0.00 | 0.00 | 59 | 1008.7 |
| 20260505001313 | 70 | 329 | 5.0 | 13.0 | 0.00 | 0.00 | 0.00 | 58 | 1008.7 |
| 20260505000331 | 71 | 350 | 4.0 | 11.0 | 0.00 | 0.00 | 0.00 | 57 | 1008.7 |
| 20260504235322 | 71 | 350 | 3.0 | 10.0 | 0.00 | 0.00 | 0.00 | 56 | 1008.8 |
| 20260504234335 | 71 | 348 | 3.0 | 10.0 | 0.00 | 0.00 | 0.00 | 58 | 1008.8 |
| 20260504233329 | 71 | 332 | 5.0 | 14.0 | 0.00 | 0.00 | 0.00 | 58 | 1008.8 |
| 20260504232320 | 71 | 337 | 4.0 | 10.0 | 0.00 | 0.00 | 0.00 | 59 | 1008.8 |
| 20260504231336 | 72 | 277 | 4.0 | 11.0 | 0.00 | 0.00 | 0.00 | 56 | 1008.8 |
| 20260504230328 | 72 | 5 | 2.0 | 8.0 | 0.00 | 0.00 | 0.00 | 59 | 1008.8 |
| 20260504225320 | 72 | 32 | 2.0 | 7.0 | 0.00 | 0.00 | 0.00 | 59 | 1008.8 |
| 20260504224321 | 71 | 17 | 3.0 | 9.0 | 0.00 | 0.00 | 0.00 | 60 | 1008.9 |
| 20260504223336 | 71 | 342 | 2.0 | 8.0 | 0.00 | 0.00 | 0.00 | 58 | 1008.9 |
| 20260504222347 | 71 | 12 | 1.0 | 7.0 | 0.00 | 0.00 | 0.00 | 62 | 1009.2 |
| 20260504221319 | 71 | 280 | 0.0 | 8.0 | 0.00 | 0.00 | 0.00 | 60 | 1009.4 |
| 20260504220358 | 70 | 360 | 0.0 | 6.0 | 0.00 | 0.00 | 0.00 | 60 | 1009.4 |
| 20260504215327 | 70 | 322 | 2.0 | 6.0 | 0.00 | 0.00 | 0.00 | 62 | 1009.5 |
| 20260504214320 | 70 | 39 | 3.0 | 8.0 | 0.00 | 0.00 | 0.00 | 62 | 1009.6 |
| 20260504213316 | 69 | 319 | 4.0 | 8.0 | 0.00 | 0.00 | 0.00 | 61 | 1009.6 |
| 20260504212329 | 69 | 77 | 1.0 | 7.0 | 0.00 | 0.00 | 0.00 | 66 | 1009.8 |
| 20260504211320 | 68 | 350 | 1.0 | 6.0 | 0.00 | 0.00 | 0.00 | 64 | 1009.9 |
| 20260504210334 | 67 | 349 | 1.0 | 7.0 | 0.00 | 0.00 | 0.00 | 67 | 1009.9 |
| 20260504205325 | 68 | 346 | 1.0 | 7.0 | 0.00 | 0.00 | 0.00 | 62 | 1010.1 |
| 20260504204337 | 67 | 336 | 1.0 | 4.0 | 0.00 | 0.00 | 0.00 | 69 | 1010.2 |
| 20260504203351 | 66 | 244 | 1.0 | 9.0 | 0.00 | 0.00 | 0.00 | 63 | 1010.2 |
| 20260504202326 | 66 | 305 | 1.0 | 5.0 | 0.00 | 0.00 | 0.00 | 68 | 1010.4 |
| 20260504201325 | 65 | 86 | 0.0 | 3.0 | 0.00 | 0.00 | 0.00 | 68 | 1010.5 |
| 20260504200336 | 65 | 54 | 0.0 | 3.0 | 0.00 | 0.00 | 0.00 | 69 | 1010.5 |
| 20260504195332 | 64 | 284 | 1.0 | 5.0 | 0.00 | 0.00 | 0.00 | 69 | 1010.6 |
| 20260504194321 | 63 | 336 | 0.0 | 4.0 | 0.00 | 0.00 | 0.00 | 70 | 1010.7 |
| 20260504193335 | 63 | 57 | 0.0 | 3.0 | 0.00 | 0.00 | 0.00 | 70 | 1010.7 |
| 20260504192327 | 62 | 58 | 0.0 | 0.0 | 0.00 | 0.00 | 0.00 | 72 | 1010.8 |
| 20260504191319 | 62 | 113 | 0.0 | 0.0 | 0.00 | 0.00 | 0.00 | 75 | 1010.9 |
| 20260504190329 | 62 | 71 | 0.0 | 0.0 | 0.00 | 0.00 | 0.00 | 74 | 1010.9 |
| 20260504185327 | 61 | 70 | 0.0 | 0.0 | 0.00 | 0.00 | 0.00 | 73 | 1010.9 |
| 20260504184337 | 61 | 76 | 0.0 | 0.0 | 0.00 | 0.00 | 0.00 | 74 | 1011.1 |
| 20260504183330 | 60 | 78 | 0.0 | 3.0 | 0.00 | 0.00 | 0.00 | 75 | 1011.1 |
| 20260504182324 | 61 | 39 | 0.0 | 1.0 | 0.00 | 0.00 | 0.00 | 75 | 1011.0 |
| 20260504181357 | 60 | 35 | 0.0 | 4.0 | 0.00 | 0.00 | 0.00 | 75 | 1011.0 |
| 20260504180326 | 60 | 88 | 0.0 | 0.0 | 0.00 | 0.00 | 0.00 | 76 | 1011.0 |
| 20260504175337 | 60 | 92 | 0.0 | 2.0 | 0.00 | 0.00 | 0.00 | 76 | 1011.0 |
| 20260504174329 | 60 | 323 | 0.0 | 0.0 | 0.00 | 0.00 | 0.00 | 77 | 1011.1 |
| 20260504173321 | 59 | 321 | 0.0 | 0.0 | 0.00 | 0.00 | 0.00 | 78 | 1011.1 |
| 20260504172333 | 59 | 321 | 0.0 | 1.0 | 0.00 | 0.00 | 0.00 | 77 | 1011.0 |
| 20260504171325 | 59 | 321 | 0.0 | 0.0 | 0.00 | 0.00 | 0.00 | 78 | 1010.9 |
| 20260504170322 | 58 | 321 | 0.0 | 0.0 | 0.00 | 0.00 | 0.00 | 78 | 1010.9 |
| 20260504160322 | 57 | 319 | 0.0 | 2.0 | 0.00 | 0.00 | 0.00 | 81 | 1010.9 |
| 20260504150319 | 56 | 319 | 0.0 | 1.0 | 0.00 | 0.00 | 0.00 | 84 | 1010.8 |
| 20260504141317 | 55 | 319 | 0.0 | 0.0 | 0.00 | 0.00 | 0.00 | 87 | 1010.4 |
| 20260504140351 | 55 | 319 | 0.0 | 0.0 | 0.00 | 0.00 | 0.00 | 87 | 1010.4 |
| 20260504130341 | 54 | 319 | 0.0 | 0.0 | 0.00 | 0.00 | 0.00 | 91 | 1009.8 |
| 20260504110318 | 54 | 319 | 0.0 | 0.0 | 0.00 | 0.00 | 0.00 | 88 | 1009.1 |
| 20260504100318 | 56 | 319 | 0.0 | 0.0 | 0.00 | 0.00 | 0.00 | 86 | 1008.8 |
| 20260504081319 | 59 | 319 | 0.0 | 0.0 | 0.00 | 0.00 | 0.00 | 79 | 1008.3 |
| 20260504080330 | 59 | 319 | 0.0 | 0.0 | 0.00 | 0.00 | 0.00 | 78 | 1008.3 |
| 20260504070327 | 62 | 325 | 0.0 | 0.0 | 0.00 | 0.00 | 0.00 | 75 | 1007.6 |